{"data":{"norad_id":66922,"epoch":"2026-09-19T00:23:54.719520Z","epoch_age_seconds":240090,"freshness":"STALE","line1":"1 66922U 25285H   26262.01660555 -.00000094  00000+0  65743-4 0  9995","line2":"2 66922  50.0080 169.2724 0000122 249.8544 110.2315 13.29329157 38547","mean_motion":13.29329157,"eccentricity":1.22e-5,"inclination_deg":50.008,"raan_deg":169.2724,"arg_perigee_deg":249.8544,"mean_anomaly_deg":110.2315,"bstar":6.5743e-5,"rev_number":3854,"period_min":108.32531524771,"perigee_km":1149.2028193223,"apogee_km":1149.3864886547,"semimajor_km":7527.4316539885,"source":"CELESTRAK","updated_at":"2026-09-21T09:00:16.306015Z"}}